Location: Arlington
(40.6323°N, 74.1651°W)
Time: 05:29:32
(UTC+00:00)

NOAA 11 - Pass Details

Date: 23 February 2020
Orbit: 834 x 849 km, 98.4° (Epoch: 07 April)

Event Time Altitude Azimuth Distance (km) Brightness Sun altitude
Rises 00:17:55 0° 190° (S) 3,381 7.4 -19.4°
Reaches altitude 10° 00:20:29 10° 199° (SSW) 2,448 6.8 -19.9°
Maximum altitude 00:25:22 34° 264° (W) 1,358 5.9 -20.8°
Drops below altitude 10° 00:30:17 10° 328° (NNW) 2,455 7.1 -21.7°
Sets 00:32:53 0° 338° (NNW) 3,392 7.7 -22.2°
